Weather History for Honolulu, HI

Change the Weather History Date:

Thursday, September 8, 2011

  Actual Average Record
Temperature  
Mean Temperature 79 °F 82 °F  
Max Temperature 87 °F 89 °F 92 °F (1967)
Min Temperature 71 °F 75 °F 68 °F (1955)
Degree Days  
Heating Degree Days 0 0  
Month to date heating degree days 0 0  
Since 1 July heating degree days 0 0  
Cooling Degree Days 14 17  
Month to date cooling degree days 127 136  
Year to date cooling degree days 3308 3120  
Growing Degree Days 29 (Base 50)    
Moisture  
Dew Point 68 °F    
Average Humidity 74    
Maximum Humidity 90    
Minimum Humidity 57    
Precipitation  
Precipitation T in 0.02 in 0.22 in (1962)
Month to date precipitation 0.03 0.15  
Year to date precipitation 13.37 9.05  
Snow  
Snow 0.00 in - - ()
Month to date snowfall 0.0  
Since 1 July snowfall 0.0  
Since 1 September snowfall 0.0  
Snow Depth 0.00 in    
Sea Level Pressure  
Sea Level Pressure 30.01 in    
Wind  
Wind Speed 7 mph (East)    
Max Wind Speed 17 mph    
Max Gust Speed 22 mph    
Visibility 10 miles    
Events      
T = Trace of Precipitation, MM = Missing Value Source: NWS Daily Summary

Daily Weather History Graph

Daily Weather History Graph

Search for Another Location

Airport:

Trip Planner

Search our weather history database for the weather conditions in past years. The results will help you decide how hot, cold, wet, or windy it might be!

Date:

Astronomy

Sep. 08, 2011 Rise Set
Actual Time 6:16 AM HST 6:41 PM HST
Civil Twilight 5:54 AM HST 7:03 PM HST
Nautical Twilight 5:28 AM HST 7:29 PM HST
Astronomical Twilight 5:02 AM HST 7:56 PM HST
Moon 4:24 PM HST (9/8) 3:08 AM HST (9/8)
Length of Visible Light 13h 09m
Length of Day
12h 24m
Waxing Gibbous, 89% of the Moon is Illuminated
Sep 8
Waxing Gibbous
Sep 11
Full
Sep 20
Last Quarter
Sep 27
New
Oct 3
First Quarter

Hourly Weather History & Observations

Time (HST) Temp. Heat Index Dew Point Humidity Pressure Visibility Wind Dir Wind Speed Gust Speed Precip Events Conditions
12:53 AM 75.0 °F - 68.0 °F 79% 29.99 in 10.0 mi Calm Calm - N/A   Partly Cloudy
1:53 AM 73.9 °F - 69.1 °F 85% 29.98 in 10.0 mi Calm Calm - N/A   Partly Cloudy
2:53 AM 73.0 °F - 69.1 °F 87% 29.98 in 10.0 mi NNW 4.6 mph - N/A   Clear
3:53 AM 72.0 °F - 68.0 °F 87% 29.97 in 10.0 mi North 3.5 mph - N/A   Partly Cloudy
4:53 AM 72.0 °F - 68.0 °F 87% 29.98 in 10.0 mi NW 4.6 mph - N/A   Clear
5:53 AM 72.0 °F - 68.0 °F 87% 29.99 in 10.0 mi NNW 5.8 mph - N/A   Partly Cloudy
6:53 AM 73.0 °F - 66.9 °F 81% 30.00 in 10.0 mi NNW 5.8 mph - N/A   Scattered Clouds
7:53 AM 77.0 °F - 68.0 °F 74% 30.01 in 10.0 mi Variable 3.5 mph - N/A   Scattered Clouds
8:53 AM 80.1 °F 82.1 °F 66.0 °F 62% 30.02 in 10.0 mi East 4.6 mph - N/A   Scattered Clouds
9:53 AM 82.9 °F 85.4 °F 66.9 °F 58% 30.02 in 10.0 mi SSE 6.9 mph - N/A   Scattered Clouds
10:53 AM 84.9 °F 88.8 °F 69.1 °F 59% 30.01 in 10.0 mi SSE 12.7 mph - N/A   Scattered Clouds
11:53 AM 86.0 °F 90.1 °F 69.1 °F 57% 30.00 in 10.0 mi SE 16.1 mph - N/A   Scattered Clouds
12:53 PM 84.9 °F 88.2 °F 68.0 °F 57% 29.99 in 10.0 mi SE 15.0 mph - N/A   Scattered Clouds
1:53 PM 86.0 °F 90.1 °F 69.1 °F 57% 29.98 in 10.0 mi SSE 13.8 mph - N/A   Scattered Clouds
2:53 PM 84.9 °F 88.2 °F 68.0 °F 57% 29.97 in 10.0 mi SSE 9.2 mph - N/A   Scattered Clouds
3:53 PM 84.0 °F 87.0 °F 68.0 °F 58% 29.97 in 10.0 mi South 4.6 mph - 0.00 in   Mostly Cloudy
4:53 PM 84.0 °F 87.0 °F 68.0 °F 58% 29.97 in 10.0 mi SE 8.1 mph - N/A   Mostly Cloudy
5:53 PM 82.9 °F 86.5 °F 69.1 °F 63% 29.99 in 10.0 mi NE 9.2 mph - 0.00 in   Mostly Cloudy
6:53 PM 81.0 °F 84.1 °F 69.1 °F 67% 30.01 in 10.0 mi NE 10.4 mph - N/A   Mostly Cloudy
7:53 PM 80.1 °F 82.9 °F 69.1 °F 69% 30.03 in 10.0 mi NE 5.8 mph - N/A   Scattered Clouds
8:53 PM 80.1 °F 83.2 °F 70.0 °F 71% 30.06 in 10.0 mi East 5.8 mph - N/A   Scattered Clouds
9:53 PM 79.0 °F - 70.0 °F 74% 30.07 in 10.0 mi East 5.8 mph - N/A   Scattered Clouds
10:53 PM 79.0 °F - 70.0 °F 74% 30.08 in 10.0 mi NNE 3.5 mph - N/A   Partly Cloudy
11:53 PM 79.0 °F - 69.1 °F 72% 30.07 in 10.0 mi ENE 6.9 mph - N/A   Partly Cloudy